Tracking 23762 objects as of 20-Oct-2021
HD Live streaming from Space Station
objects crossing your sky now

QUETZAL-1

Track QUETZAL-1 now!
10-day predictions
QUETZAL-1 is classified as:


NORAD ID: 45598
Int'l Code: 1998-067RL
Perigee: 374.2 km
Apogee: 375.7 km
Inclination: 51.6 °
Period: 91.9 minutes
Semi major axis: 6745 km
RCS: Unknown
Launch date: November 20, 1998
Source: (TBD)
Launch site: TYURATAM MISSILE AND SPACE COMPLEX (TTMTR)

Uplink (MHz):
Downlink (MHz): 437.200
Beacon (MHz):
Mode: 4800bps GMSK
Call sign:
Status: Inactive

aabbcc
Your satellite tracking list
Your tracking list is empty




NASA's NSSDC Master Catalog

Two Line Element Set (TLE):
1 45598U 98067RL  21292.64293144  .00046832  00000-0  43604-3 0  9993
2 45598  51.6376  60.6207 0001080 344.8333  15.2630 15.66889157 83979
Source of the keplerian elements: AFSPC